Time,TemperatureF,DewpointF,PressureIn,WindDirection,WindDirectionDegrees,WindSpeedMPH,WindSpeedGustMPH,Humidity,HourlyPrecipIn,Conditions,Clouds,dailyrainin,SoftwareType,DateUTC
2014-08-29 00:04:00,75.0,62.9,28.50,SW,225,0.0,0.0,66,0.00,CLR,,0.00,WeatherDisplay:10.37,2014-08-29 05:04:00,
2014-08-29 00:09:00,74.8,62.7,28.50,West,270,1.2,0.0,66,0.00,CLR,,0.00,WeatherDisplay:10.37,2014-08-29 05:09:00,
2014-08-29 00:14:00,74.5,62.8,28.50,West,270,0.0,0.0,67,0.00,CLR,,0.00,WeatherDisplay:10.37,2014-08-29 05:14:00,
2014-08-29 00:19:00,74.3,63.1,28.50,South,180,2.3,2.3,68,0.00,CLR,,0.00,WeatherDisplay:10.37,2014-08-29 05:19:00,
2014-08-29 00:24:00,74.3,63.1,28.50,SSW,202,1.2,1.2,68,0.00,CLR,,0.00,WeatherDisplay:10.37,2014-08-29 05:24:00,
2014-08-29 00:29:00,74.1,62.9,28.50,SSE,158,1.2,1.2,68,0.00,CLR,,0.00,WeatherDisplay:10.37,2014-08-29 05:29:00,
2014-08-29 00:34:00,73.9,62.7,28.50,South,180,0.0,0.0,68,0.00,CLR,,0.00,WeatherDisplay:10.37,2014-08-29 05:34:00,
2014-08-29 00:39:00,73.9,62.7,28.51,SSE,158,1.2,1.2,68,0.00,CLR,,0.00,WeatherDisplay:10.37,2014-08-29 05:39:00,
2014-08-29 00:44:00,73.9,62.7,28.51,SW,225,0.0,0.0,68,0.00,CLR,,0.00,WeatherDisplay:10.37,2014-08-29 05:44:00,
2014-08-29 00:49:00,73.9,62.7,28.51,SSW,202,1.2,0.0,68,0.00,CLR,,0.00,WeatherDisplay:10.37,2014-08-29 05:49:00,
2014-08-29 00:54:00,73.8,63.0,28.51,SSW,202,1.2,0.0,69,0.00,CLR,,0.00,WeatherDisplay:10.37,2014-08-29 05:54:00,
2014-08-29 00:59:00,73.6,62.8,28.51,South,180,0.0,0.0,69,0.00,CLR,,0.00,WeatherDisplay:10.37,2014-08-29 05:59:00,
2014-08-29 01:04:00,73.6,62.8,28.51,SSW,202,0.0,0.0,69,0.00,CLR,,0.00,WeatherDisplay:10.37,2014-08-29 06:04:00,
2014-08-29 01:09:00,73.6,62.8,28.51,SSW,202,1.2,1.3,69,0.00,CLR,,0.00,WeatherDisplay:10.37,2014-08-29 06:09:00,
2014-08-29 01:14:00,73.4,62.6,28.51,South,180,0.0,0.0,69,0.00,CLR,,0.00,WeatherDisplay:10.37,2014-08-29 06:14:00,
2014-08-29 01:19:00,73.2,62.8,28.50,South,180,1.2,0.0,70,0.00,CLR,,0.00,WeatherDisplay:10.37,2014-08-29 06:19:00,
2014-08-29 01:24:00,73.0,62.6,28.50,South,180,0.0,0.0,70,0.00,CLR,,0.00,WeatherDisplay:10.37,2014-08-29 06:24:00,
2014-08-29 01:29:00,72.7,62.8,28.50,South,180,0.0,0.0,71,0.00,CLR,,0.00,WeatherDisplay:10.37,2014-08-29 06:29:00,
2014-08-29 01:34:00,72.5,62.6,28.50,South,180,0.0,0.0,71,0.00,CLR,,0.00,WeatherDisplay:10.37,2014-08-29 06:34:00,
2014-08-29 01:39:00,72.3,62.8,28.50,SSW,202,1.2,1.2,72,0.00,CLR,,0.00,WeatherDisplay:10.37,2014-08-29 06:39:00,
2014-08-29 01:44:00,72.3,62.8,28.50,SSW,202,2.3,2.3,72,0.00,CLR,,0.00,WeatherDisplay:10.37,2014-08-29 06:44:00,
2014-08-29 01:49:00,72.3,62.8,28.50,SSW,202,0.0,0.3,72,0.00,CLR,,0.00,WeatherDisplay:10.37,2014-08-29 06:49:00,
2014-08-29 01:54:00,72.1,62.6,28.49,South,180,0.0,0.0,72,0.00,CLR,,0.00,WeatherDisplay:10.37,2014-08-29 06:54:00,
2014-08-29 01:59:00,72.0,62.9,28.49,WNW,292,0.0,0.0,73,0.00,CLR,,0.00,WeatherDisplay:10.37,2014-08-29 06:59:00,
2014-08-29 02:04:00,71.6,62.5,28.49,WNW,292,0.0,0.0,73,0.00,CLR,,0.00,WeatherDisplay:10.37,2014-08-29 07:04:00,
2014-08-29 02:09:00,71.4,62.7,28.49,WNW,292,0.0,0.0,74,0.00,CLR,,0.00,WeatherDisplay:10.37,2014-08-29 07:09:00,
2014-08-29 02:14:00,71.2,62.5,28.49,ENE,68,0.0,0.0,74,0.00,CLR,,0.00,WeatherDisplay:10.37,2014-08-29 07:14:00,
2014-08-29 02:20:00,71.1,62.4,28.48,ENE,68,0.0,0.0,74,0.00,CLR,,0.00,WeatherDisplay:10.37,2014-08-29 07:20:00,
2014-08-29 02:25:00,71.1,62.4,28.48,ESE,112,0.0,0.0,74,0.00,CLR,,0.00,WeatherDisplay:10.37,2014-08-29 07:25:00,
2014-08-29 02:30:00,70.9,62.6,28.48,East,90,0.0,0.0,75,0.00,CLR,,0.00,WeatherDisplay:10.37,2014-08-29 07:30:00,
2014-08-29 02:35:00,70.7,62.4,28.48,SSW,202,0.0,0.0,75,0.00,CLR,,0.00,WeatherDisplay:10.37,2014-08-29 07:35:00,
2014-08-29 02:40:00,70.5,62.2,28.48,SSW,202,0.0,0.0,75,0.00,CLR,,0.00,WeatherDisplay:10.37,2014-08-29 07:40:00,
2014-08-29 02:45:00,70.3,62.0,28.48,NNE,22,0.0,0.0,75,0.00,CLR,,0.00,WeatherDisplay:10.37,2014-08-29 07:45:00,
2014-08-29 02:50:00,70.3,62.4,28.48,SW,225,1.2,0.0,76,0.00,CLR,,0.00,WeatherDisplay:10.37,2014-08-29 07:50:00,
2014-08-29 02:55:00,70.3,62.4,28.48,West,270,1.1,0.0,76,0.00,CLR,,0.00,WeatherDisplay:10.37,2014-08-29 07:55:00,
2014-08-29 03:00:00,70.3,62.4,28.48,West,271,0.0,1.0,76,0.00,CLR,,0.00,WeatherDisplay:10.37,2014-08-29 08:00:00,
2014-08-29 03:05:00,70.3,62.4,28.48,WSW,251,0.0,0.0,76,0.00,CLR,,0.00,WeatherDisplay:10.37,2014-08-29 08:05:00,
2014-08-29 03:10:00,70.2,62.3,28.48,NNW,338,0.0,0.0,76,0.00,CLR,,0.00,WeatherDisplay:10.37,2014-08-29 08:10:00,
2014-08-29 03:15:00,70.0,62.1,28.48,WNW,283,0.0,0.0,76,0.00,CLR,,0.00,WeatherDisplay:10.37,2014-08-29 08:15:00,
2014-08-29 03:20:00,70.0,62.1,28.47,WNW,299,0.0,0.0,76,0.00,CLR,,0.00,WeatherDisplay:10.37,2014-08-29 08:20:00,
2014-08-29 03:25:00,70.2,62.3,28.47,SW,214,0.0,2.0,76,0.00,CLR,,0.00,WeatherDisplay:10.37,2014-08-29 08:25:00,
2014-08-29 03:30:00,70.5,62.6,28.47,West,261,0.0,1.0,76,0.00,CLR,,0.00,WeatherDisplay:10.37,2014-08-29 08:30:00,
2014-08-29 03:35:00,70.7,62.8,28.47,NW,311,0.0,0.0,76,0.00,CLR,,0.00,WeatherDisplay:10.37,2014-08-29 08:35:00,
2014-08-29 03:40:00,70.7,62.8,28.47,NNW,330,0.0,0.0,76,0.00,CLR,,0.00,WeatherDisplay:10.37,2014-08-29 08:40:00,
2014-08-29 03:45:00,70.7,62.8,28.47,North,349,0.0,1.0,76,0.00,CLR,,0.00,WeatherDisplay:10.37,2014-08-29 08:45:00,
2014-08-29 03:50:00,70.7,62.8,28.47,NW,317,0.0,1.0,76,0.00,CLR,,0.00,WeatherDisplay:10.37,2014-08-29 08:50:00,
2014-08-29 03:55:00,70.7,62.8,28.46,West,272,0.0,2.0,76,0.00,CLR,,0.00,WeatherDisplay:10.37,2014-08-29 08:55:00,
2014-08-29 04:00:00,70.7,62.8,28.46,SW,230,0.0,0.0,76,0.00,CLR,,0.00,WeatherDisplay:10.37,2014-08-29 09:00:00,
2014-08-29 04:05:00,70.7,62.8,28.46,SSW,209,0.0,1.0,76,0.00,CLR,,0.00,WeatherDisplay:10.37,2014-08-29 09:05:00,
2014-08-29 04:10:00,70.7,62.8,28.46,SSW,211,0.0,2.0,76,0.00,CLR,,0.00,WeatherDisplay:10.37,2014-08-29 09:10:00,
2014-08-29 04:15:00,70.5,62.6,28.46,SW,218,0.0,2.0,76,0.00,CLR,,0.00,WeatherDisplay:10.37,2014-08-29 09:15:00,
2014-08-29 04:20:00,70.5,62.6,28.46,SW,225,0.0,2.0,76,0.00,CLR,,0.00,WeatherDisplay:10.37,2014-08-29 09:20:00,
2014-08-29 04:25:00,70.3,62.4,28.46,SSW,206,0.0,1.0,76,0.00,CLR,,0.00,WeatherDisplay:10.37,2014-08-29 09:25:00,
2014-08-29 04:30:00,70.3,62.4,28.47,SSW,194,0.0,1.0,76,0.00,CLR,,0.00,WeatherDisplay:10.37,2014-08-29 09:30:00,
2014-08-29 04:35:00,70.5,62.6,28.47,South,189,0.0,0.0,76,0.00,CLR,,0.00,WeatherDisplay:10.37,2014-08-29 09:35:00,
2014-08-29 04:40:00,70.5,62.6,28.46,SSW,193,0.0,1.0,76,0.00,CLR,,0.00,WeatherDisplay:10.37,2014-08-29 09:40:00,
2014-08-29 04:45:00,70.6,62.7,28.46,South,181,1.0,2.0,76,0.00,CLR,,0.00,WeatherDisplay:10.37,2014-08-29 09:45:00,
2014-08-29 04:50:00,70.7,62.8,28.46,South,173,0.0,3.0,76,0.00,CLR,,0.00,WeatherDisplay:10.37,2014-08-29 09:50:00,
2014-08-29 04:55:00,71.0,63.1,28.47,SSW,208,1.0,3.0,76,0.00,CLR,,0.00,WeatherDisplay:10.37,2014-08-29 09:55:00,
2014-08-29 05:00:00,71.1,63.1,28.47,SW,217,0.0,2.0,76,0.00,CLR,,0.00,WeatherDisplay:10.37,2014-08-29 10:00:00,
2014-08-29 05:05:00,71.2,63.2,28.47,SSW,200,1.0,3.0,76,0.00,CLR,,0.00,WeatherDisplay:10.37,2014-08-29 10:05:00,
2014-08-29 05:10:00,71.2,63.3,28.47,SW,216,0.0,2.0,76,0.00,CLR,,0.00,WeatherDisplay:10.37,2014-08-29 10:10:00,
2014-08-29 05:15:00,71.4,63.4,28.47,South,188,1.0,4.0,76,0.00,CLR,,0.00,WeatherDisplay:10.37,2014-08-29 10:15:00,
2014-08-29 05:20:00,71.4,63.4,28.47,SSE,163,0.0,2.0,76,0.00,CLR,,0.00,WeatherDisplay:10.37,2014-08-29 10:20:00,
2014-08-29 05:25:00,71.2,63.2,28.47,South,184,1.0,2.0,76,0.00,CLR,,0.00,WeatherDisplay:10.37,2014-08-29 10:25:00,
2014-08-29 05:30:00,71.2,63.2,28.47,SW,219,1.0,3.0,76,0.00,CLR,,0.00,WeatherDisplay:10.37,2014-08-29 10:30:00,
2014-08-29 05:35:00,71.1,63.1,28.47,SW,217,0.0,2.0,76,0.00,CLR,,0.00,WeatherDisplay:10.37,2014-08-29 10:35:00,
2014-08-29 05:40:00,71.1,63.1,28.47,South,191,1.0,3.0,76,0.00,CLR,,0.00,WeatherDisplay:10.37,2014-08-29 10:40:00,
2014-08-29 05:45:00,71.1,63.1,28.47,SW,225,2.3,2.3,76,0.00,CLR,,0.00,WeatherDisplay:10.37,2014-08-29 10:45:00,
2014-08-29 05:50:00,71.1,63.1,28.47,West,270,1.2,1.2,76,0.00,CLR,,0.00,WeatherDisplay:10.37,2014-08-29 10:50:00,
2014-08-29 05:55:00,71.1,63.1,28.47,SSW,202,2.2,2.2,76,0.00,CLR,,0.00,WeatherDisplay:10.37,2014-08-29 10:55:00,
2014-08-29 06:00:00,71.1,63.1,28.47,West,270,1.7,1.8,76,0.00,CLR,,0.00,WeatherDisplay:10.37,2014-08-29 11:00:00,
2014-08-29 06:05:00,71.4,63.4,28.48,ESE,112,1.2,1.2,76,0.00,CLR,,0.00,WeatherDisplay:10.37,2014-08-29 11:05:00,
2014-08-29 06:10:00,71.2,63.2,28.48,SSW,202,1.2,1.2,76,0.00,CLR,,0.00,WeatherDisplay:10.37,2014-08-29 11:10:00,
2014-08-29 06:15:00,71.2,63.2,28.48,SW,230,0.0,2.0,76,0.00,CLR,,0.00,WeatherDisplay:10.37,2014-08-29 11:15:00,
2014-08-29 06:20:00,71.2,63.2,28.48,SSW,213,2.0,3.0,76,0.00,CLR,,0.00,WeatherDisplay:10.37,2014-08-29 11:20:00,
2014-08-29 06:25:00,71.2,63.2,28.48,SSW,206,2.0,3.0,76,0.00,CLR,,0.00,WeatherDisplay:10.37,2014-08-29 11:25:00,
2014-08-29 06:30:00,71.8,63.8,28.48,SSW,195,2.0,3.0,76,0.00,CLR,,0.00,WeatherDisplay:10.37,2014-08-29 11:30:00,
2014-08-29 06:35:00,71.8,63.8,28.48,South,191,0.0,2.0,76,0.00,CLR,,0.00,WeatherDisplay:10.37,2014-08-29 11:35:00,
2014-08-29 06:40:00,72.0,64.0,28.48,SW,226,0.0,1.0,76,0.00,CLR,,0.00,WeatherDisplay:10.37,2014-08-29 11:40:00,
2014-08-29 06:45:00,72.1,64.1,28.49,West,276,1.0,2.0,76,0.00,CLR,,0.00,WeatherDisplay:10.37,2014-08-29 11:45:00,
2014-08-29 06:50:00,72.5,64.1,28.49,South,176,2.0,3.0,75,0.00,CLR,,0.00,WeatherDisplay:10.37,2014-08-29 11:50:00,
2014-08-29 06:55:00,72.5,64.1,28.49,South,186,1.0,3.0,75,0.00,CLR,,0.00,WeatherDisplay:10.37,2014-08-29 11:55:00,
2014-08-29 07:00:00,72.5,64.1,28.49,SSW,197,1.0,3.0,75,0.00,CLR,,0.00,WeatherDisplay:10.37,2014-08-29 12:00:00,
2014-08-29 07:05:00,72.5,64.1,28.49,SSW,199,1.0,2.0,75,0.00,CLR,,0.00,WeatherDisplay:10.37,2014-08-29 12:05:00,
2014-08-29 07:10:00,72.5,64.1,28.49,SSW,198,2.0,3.0,75,0.00,CLR,,0.00,WeatherDisplay:10.37,2014-08-29 12:10:00,
2014-08-29 07:15:00,72.7,64.3,28.49,SSW,213,1.0,3.0,75,0.00,CLR,,0.00,WeatherDisplay:10.37,2014-08-29 12:15:00,
2014-08-29 07:20:00,72.9,64.5,28.49,SW,222,0.0,2.0,75,0.00,CLR,,0.00,WeatherDisplay:10.37,2014-08-29 12:20:00,
2014-08-29 07:25:00,73.0,64.6,28.49,WSW,254,0.0,1.0,75,0.00,CLR,,0.00,WeatherDisplay:10.37,2014-08-29 12:25:00,
2014-08-29 07:30:00,73.4,65.0,28.48,South,189,0.0,2.0,75,0.00,CLR,,0.00,WeatherDisplay:10.37,2014-08-29 12:30:00,
2014-08-29 07:35:00,74.1,65.7,28.48,South,190,2.0,3.0,75,0.00,CLR,,0.00,WeatherDisplay:10.37,2014-08-29 12:35:00,
2014-08-29 07:40:00,74.1,65.3,28.48,SSW,194,1.0,2.0,74,0.00,CLR,,0.00,WeatherDisplay:10.37,2014-08-29 12:40:00,
2014-08-29 07:45:00,74.1,65.3,28.48,SW,224,2.0,5.0,74,0.00,CLR,,0.00,WeatherDisplay:10.37,2014-08-29 12:45:00,
2014-08-29 07:50:00,74.3,65.5,28.48,WSW,246,2.0,3.0,74,0.00,CLR,,0.00,WeatherDisplay:10.37,2014-08-29 12:50:00,
2014-08-29 07:55:00,74.6,65.8,28.48,SW,219,2.0,6.0,74,0.00,CLR,,0.00,WeatherDisplay:10.37,2014-08-29 12:55:00,
2014-08-29 08:00:00,74.7,65.9,28.48,SW,218,2.0,5.0,74,0.00,CLR,,0.00,WeatherDisplay:10.37,2014-08-29 13:00:00,
2014-08-29 08:05:00,75.4,66.5,28.48,SSW,211,3.0,5.0,74,0.00,CLR,,0.00,WeatherDisplay:10.37,2014-08-29 13:05:00,
2014-08-29 08:10:00,75.6,66.7,28.48,SSW,192,1.0,5.0,74,0.00,CLR,,0.00,WeatherDisplay:10.37,2014-08-29 13:10:00,
2014-08-29 08:15:00,75.4,66.5,28.48,SSW,197,1.0,3.0,74,0.00,CLR,,0.00,WeatherDisplay:10.37,2014-08-29 13:15:00,
2014-08-29 08:20:00,75.4,66.5,28.48,SW,231,2.0,5.0,74,0.00,CLR,,0.00,WeatherDisplay:10.37,2014-08-29 13:20:00,
2014-08-29 08:25:00,75.5,66.6,28.48,SW,220,2.0,5.0,74,0.00,CLR,,0.00,WeatherDisplay:10.37,2014-08-29 13:25:00,
2014-08-29 08:30:00,75.7,66.8,28.48,SSW,203,2.0,5.0,74,0.00,CLR,,0.00,WeatherDisplay:10.37,2014-08-29 13:30:00,
2014-08-29 08:35:00,75.9,67.0,28.48,SW,217,1.0,4.0,74,0.00,CLR,,0.00,WeatherDisplay:10.37,2014-08-29 13:35:00,
2014-08-29 08:40:00,75.9,67.0,28.48,SW,224,1.0,3.0,74,0.00,CLR,,0.00,WeatherDisplay:10.37,2014-08-29 13:40:00,
2014-08-29 08:45:00,76.1,67.2,28.48,SSE,158,1.7,1.7,74,0.00,CLR,,0.00,WeatherDisplay:10.37,2014-08-29 13:45:00,
2014-08-29 08:50:00,76.3,67.0,28.48,West,270,2.3,2.6,73,0.00,CLR,,0.00,WeatherDisplay:10.37,2014-08-29 13:50:00,
2014-08-29 08:55:00,76.6,67.3,28.48,South,180,3.5,4.1,73,0.00,CLR,,0.00,WeatherDisplay:10.37,2014-08-29 13:55:00,
2014-08-29 09:00:00,77.5,67.8,28.48,West,270,2.3,2.3,72,0.00,CLR,,0.00,WeatherDisplay:10.37,2014-08-29 14:00:00,
2014-08-29 09:05:00,78.6,68.8,28.48,SSW,202,2.7,2.7,72,0.00,CLR,,0.00,WeatherDisplay:10.37,2014-08-29 14:05:00,
2014-08-29 09:10:00,79.0,68.8,28.48,SW,225,2.7,2.7,71,0.00,CLR,,0.00,WeatherDisplay:10.37,2014-08-29 14:10:00,
2014-08-29 09:15:00,79.2,68.6,28.48,SE,135,3.5,3.5,70,0.00,CLR,,0.00,WeatherDisplay:10.37,2014-08-29 14:15:00,
2014-08-29 09:20:00,79.2,68.6,28.48,SSW,202,5.8,5.8,70,0.00,CLR,,0.00,WeatherDisplay:10.37,2014-08-29 14:20:00,
2014-08-29 09:25:00,80.5,69.3,28.48,SW,219,3.0,6.0,69,0.00,CLR,,0.00,WeatherDisplay:10.37,2014-08-29 14:25:00,
2014-08-29 09:30:00,81.2,68.8,28.49,SW,220,5.0,7.0,66,0.00,CLR,,0.00,WeatherDisplay:10.37,2014-08-29 14:30:00,
2014-08-29 09:35:00,81.6,69.2,28.49,South,190,3.0,8.0,66,0.00,CLR,,0.00,WeatherDisplay:10.37,2014-08-29 14:35:00,
2014-08-29 09:40:00,81.5,69.0,28.49,SSW,195,6.0,7.0,66,0.00,CLR,,0.00,WeatherDisplay:10.37,2014-08-29 14:40:00,
2014-08-29 09:45:00,82.4,69.4,28.49,SW,223,3.0,6.0,65,0.00,CLR,,0.00,WeatherDisplay:10.37,2014-08-29 14:45:00,
2014-08-29 09:50:00,82.6,69.2,28.49,SSW,207,3.0,6.0,64,0.00,CLR,,0.00,WeatherDisplay:10.37,2014-08-29 14:50:00,
2014-08-29 09:55:00,82.5,69.1,28.49,SSW,193,8.0,9.0,64,0.00,CLR,,0.00,WeatherDisplay:10.37,2014-08-29 14:55:00,
2014-08-29 10:00:00,82.3,68.9,28.49,South,179,8.0,12.0,64,0.00,CLR,,0.00,WeatherDisplay:10.37,2014-08-29 15:00:00,
2014-08-29 10:05:00,82.6,69.2,28.49,SSW,200,7.0,10.0,64,0.00,CLR,,0.00,WeatherDisplay:10.37,2014-08-29 15:05:00,
2014-08-29 10:10:00,82.0,68.6,28.49,South,187,7.0,10.0,64,0.00,CLR,,0.00,WeatherDisplay:10.37,2014-08-29 15:10:00,
2014-08-29 10:15:00,81.4,68.1,28.49,South,176,5.0,9.0,64,0.00,CLR,,0.00,WeatherDisplay:10.37,2014-08-29 15:15:00,
2014-08-29 10:20:00,81.2,67.9,28.50,South,185,7.0,11.0,64,0.00,CLR,,0.00,WeatherDisplay:10.37,2014-08-29 15:20:00,
2014-08-29 10:25:00,80.7,68.3,28.50,South,179,7.0,10.0,66,0.00,CLR,,0.00,WeatherDisplay:10.37,2014-08-29 15:25:00,
2014-08-29 10:30:00,81.8,68.9,28.50,South,177,7.0,12.0,65,0.00,CLR,,0.00,WeatherDisplay:10.37,2014-08-29 15:30:00,
2014-08-29 10:35:00,82.3,68.9,28.50,South,170,6.0,9.0,64,0.00,CLR,,0.00,WeatherDisplay:10.37,2014-08-29 15:35:00,
2014-08-29 10:40:00,82.0,68.1,28.50,SSW,192,6.0,9.0,63,0.00,CLR,,0.00,WeatherDisplay:10.37,2014-08-29 15:40:00,
2014-08-29 10:45:00,82.1,68.7,28.50,WSW,237,6.0,10.0,64,0.00,CLR,,0.00,WeatherDisplay:10.37,2014-08-29 15:45:00,
2014-08-29 10:50:00,84.1,69.7,28.50,SSW,210,6.0,8.0,62,0.00,CLR,,0.00,WeatherDisplay:10.37,2014-08-29 15:50:00,
2014-08-29 10:55:00,83.0,69.1,28.50,SSW,194,6.0,10.0,63,0.00,CLR,,0.00,WeatherDisplay:10.37,2014-08-29 15:55:00,
2014-08-29 11:00:00,82.1,68.2,28.50,South,183,8.0,13.0,63,0.00,CLR,,0.00,WeatherDisplay:10.37,2014-08-29 16:00:00,
2014-08-29 11:05:00,82.9,68.5,28.50,SSE,157,6.0,8.0,62,0.00,CLR,,0.00,WeatherDisplay:10.37,2014-08-29 16:05:00,
2014-08-29 11:10:00,82.9,68.5,28.50,SSE,164,7.0,8.0,62,0.00,CLR,,0.00,WeatherDisplay:10.37,2014-08-29 16:10:00,
2014-08-29 11:15:00,83.7,69.3,28.50,SSW,207,5.0,7.0,62,0.00,CLR,,0.00,WeatherDisplay:10.37,2014-08-29 16:15:00,
2014-08-29 11:20:00,85.5,70.0,28.49,South,191,3.0,7.0,60,0.00,CLR,,0.00,WeatherDisplay:10.37,2014-08-29 16:20:00,
2014-08-29 11:25:00,85.5,70.0,28.49,SE,131,3.0,3.0,60,0.00,CLR,,0.00,WeatherDisplay:10.37,2014-08-29 16:25:00,
2014-08-29 11:30:00,83.5,68.6,28.49,East,94,5.0,7.0,61,0.00,CLR,,0.00,WeatherDisplay:10.37,2014-08-29 16:30:00,
2014-08-29 11:35:00,82.4,68.5,28.49,West,270,4.6,4.6,63,0.00,CLR,,0.00,WeatherDisplay:10.37,2014-08-29 16:35:00,
2014-08-29 11:40:00,83.1,68.3,28.50,SSW,202,4.6,4.6,61,0.00,CLR,,0.00,WeatherDisplay:10.37,2014-08-29 16:40:00,
2014-08-29 11:45:00,84.0,68.6,28.50,ESE,112,6.8,6.8,60,0.00,CLR,,0.00,WeatherDisplay:10.37,2014-08-29 16:45:00,
2014-08-29 11:50:00,85.5,68.0,28.50,ESE,112,5.8,5.8,56,0.00,CLR,,0.00,WeatherDisplay:10.37,2014-08-29 16:50:00,
2014-08-29 11:55:00,86.5,68.4,28.50,ESE,112,8.1,8.1,55,0.00,CLR,,0.00,WeatherDisplay:10.37,2014-08-29 16:55:00,
2014-08-29 12:00:00,85.3,68.3,28.50,SSE,158,6.9,6.9,57,0.00,CLR,,0.00,WeatherDisplay:10.37,2014-08-29 17:00:00,
2014-08-29 12:05:00,84.0,67.7,28.49,SSE,153,5.0,7.0,58,0.00,CLR,,0.00,WeatherDisplay:10.37,2014-08-29 17:05:00,
2014-08-29 12:10:00,83.8,67.4,28.49,SSE,158,8.1,8.1,58,0.00,CLR,,0.00,WeatherDisplay:10.37,2014-08-29 17:10:00,
2014-08-29 12:15:00,84.7,68.8,28.49,SSE,152,3.0,5.0,59,0.00,CLR,,0.00,WeatherDisplay:10.37,2014-08-29 17:15:00,
2014-08-29 12:20:00,85.3,67.8,28.49,SSW,212,8.0,10.0,56,0.00,CLR,,0.00,WeatherDisplay:10.37,2014-08-29 17:20:00,
2014-08-29 12:25:00,86.5,67.9,28.49,South,173,5.0,8.0,54,0.00,CLR,,0.00,WeatherDisplay:10.37,2014-08-29 17:25:00,
2014-08-29 12:30:00,84.7,66.2,28.49,SSE,153,7.0,13.0,54,0.00,CLR,,0.00,WeatherDisplay:10.37,2014-08-29 17:30:00,
2014-08-29 12:35:00,84.8,67.3,28.49,SSE,163,3.0,6.0,56,0.00,CLR,,0.00,WeatherDisplay:10.37,2014-08-29 17:35:00,
2014-08-29 12:40:00,84.5,66.5,28.49,ESE,116,6.0,7.0,55,0.00,CLR,,0.00,WeatherDisplay:10.37,2014-08-29 17:40:00,
2014-08-29 12:45:00,85.1,66.6,28.49,ESE,104,6.0,9.0,54,0.00,CLR,,0.00,WeatherDisplay:10.37,2014-08-29 17:45:00,
2014-08-29 12:50:00,85.9,66.2,28.49,South,170,3.0,9.0,52,0.00,CLR,,0.00,WeatherDisplay:10.37,2014-08-29 17:50:00,
2014-08-29 12:55:00,85.6,66.0,28.48,SSE,155,5.0,8.0,52,0.00,CLR,,0.00,WeatherDisplay:10.37,2014-08-29 17:55:00,
2014-08-29 13:00:00,85.8,66.7,28.48,South,188,5.0,9.0,53,0.00,CLR,,0.00,WeatherDisplay:10.37,2014-08-29 18:00:00,
2014-08-29 13:05:00,88.0,67.6,28.48,SSW,194,3.0,6.0,51,0.00,CLR,,0.00,WeatherDisplay:10.37,2014-08-29 18:05:00,
2014-08-29 13:10:00,88.2,67.2,28.48,SW,222,6.0,8.0,50,0.00,CLR,,0.00,WeatherDisplay:10.37,2014-08-29 18:10:00,
2014-08-29 13:15:00,88.6,67.0,28.48,SSW,199,5.0,7.0,49,0.00,CLR,,0.00,WeatherDisplay:10.37,2014-08-29 18:15:00,
2014-08-29 13:20:00,88.6,67.0,28.48,SSE,153,5.0,7.0,49,0.00,CLR,,0.00,WeatherDisplay:10.37,2014-08-29 18:20:00,
2014-08-29 13:25:00,87.4,67.1,28.48,SSE,158,4.6,4.6,51,0.00,CLR,,0.00,WeatherDisplay:10.37,2014-08-29 18:25:00,
2014-08-29 13:30:00,86.2,67.1,28.48,North,360,5.8,5.8,53,0.00,CLR,,0.00,WeatherDisplay:10.37,2014-08-29 18:30:00,
2014-08-29 13:35:00,86.5,67.3,28.48,South,180,8.1,8.1,53,0.00,CLR,,0.00,WeatherDisplay:10.37,2014-08-29 18:35:00,
2014-08-29 13:40:00,86.5,66.8,28.47,SSE,158,5.8,5.8,52,0.00,CLR,,0.00,WeatherDisplay:10.37,2014-08-29 18:40:00,
2014-08-29 13:45:00,89.2,66.9,28.47,South,180,8.3,8.3,48,0.00,CLR,,0.00,WeatherDisplay:10.37,2014-08-29 18:45:00,
2014-08-29 13:50:00,87.1,66.2,28.47,WNW,292,8.1,8.1,50,0.00,CLR,,0.00,WeatherDisplay:10.37,2014-08-29 18:50:00,
2014-08-29 13:55:00,86.2,66.5,28.47,SE,135,5.8,5.8,52,0.00,CLR,,0.00,WeatherDisplay:10.37,2014-08-29 18:55:00,
2014-08-29 14:00:00,85.5,65.9,28.47,West,270,11.5,11.5,52,0.00,CLR,,0.00,WeatherDisplay:10.37,2014-08-29 19:00:00,
2014-08-29 14:05:00,85.3,65.1,28.46,NNE,22,5.8,5.8,51,0.00,CLR,,0.00,WeatherDisplay:10.37,2014-08-29 19:05:00,
2014-08-29 14:10:00,86.0,65.2,28.46,ESE,112,3.5,3.5,50,0.00,CLR,,0.00,WeatherDisplay:10.37,2014-08-29 19:10:00,
2014-08-29 14:15:00,86.0,65.2,28.46,West,270,8.1,8.1,50,0.00,CLR,,0.00,WeatherDisplay:10.37,2014-08-29 19:15:00,
2014-08-29 14:20:00,85.5,64.7,28.47,NNE,22,3.7,3.7,50,0.00,CLR,,0.00,WeatherDisplay:10.37,2014-08-29 19:20:00,
2014-08-29 14:25:00,85.6,65.4,28.47,ENE,68,5.3,5.3,51,0.00,CLR,,0.00,WeatherDisplay:10.37,2014-08-29 19:25:00,
2014-08-29 14:30:00,85.6,66.0,28.47,NE,45,3.5,3.5,52,0.00,CLR,,0.00,WeatherDisplay:10.37,2014-08-29 19:30:00,
2014-08-29 14:35:00,85.1,65.5,28.47,East,90,3.5,3.5,52,0.00,CLR,,0.00,WeatherDisplay:10.37,2014-08-29 19:35:00,
2014-08-29 14:40:00,85.3,64.6,28.47,SSE,158,4.6,4.6,50,0.00,CLR,,0.00,WeatherDisplay:10.37,2014-08-29 19:40:00,
2014-08-29 14:45:00,85.3,64.6,28.47,ESE,112,2.3,2.3,50,0.00,CLR,,0.00,WeatherDisplay:10.37,2014-08-29 19:45:00,
2014-08-29 14:50:00,85.1,64.4,28.47,NE,45,4.2,4.2,50,0.00,CLR,,0.00,WeatherDisplay:10.37,2014-08-29 19:50:00,
2014-08-29 14:55:00,85.3,64.6,28.46,East,90,3.5,3.5,50,0.00,CLR,,0.00,WeatherDisplay:10.37,2014-08-29 19:55:00,
2014-08-29 15:00:00,85.1,64.4,28.46,South,180,5.8,5.8,50,0.00,CLR,,0.00,WeatherDisplay:10.37,2014-08-29 20:00:00,
2014-08-29 15:05:00,85.3,65.1,28.46,NE,45,3.5,3.5,51,0.00,CLR,,0.00,WeatherDisplay:10.37,2014-08-29 20:05:00,
2014-08-29 15:10:00,85.1,65.5,28.46,NNE,22,2.3,2.3,52,0.00,CLR,,0.00,WeatherDisplay:10.37,2014-08-29 20:10:00,
2014-08-29 15:15:00,86.5,66.2,28.46,SSW,192,3.0,6.0,51,0.00,CLR,,0.00,WeatherDisplay:10.37,2014-08-29 20:15:00,
2014-08-29 15:20:00,85.3,65.1,28.46,SSW,202,6.9,6.9,51,0.00,CLR,,0.00,WeatherDisplay:10.37,2014-08-29 20:20:00,
2014-08-29 15:25:00,85.5,64.7,28.46,South,180,5.8,5.8,50,0.00,CLR,,0.00,WeatherDisplay:10.37,2014-08-29 20:25:00,
2014-08-29 15:30:00,85.5,65.3,28.46,WSW,248,4.6,4.6,51,0.00,CLR,,0.00,WeatherDisplay:10.37,2014-08-29 20:30:00,
2014-08-29 15:35:00,85.5,65.3,28.46,WNW,292,4.6,4.6,51,0.00,CLR,,0.00,WeatherDisplay:10.37,2014-08-29 20:35:00,
2014-08-29 15:40:00,84.9,65.9,28.46,ESE,112,3.5,3.5,53,0.00,CLR,,0.00,WeatherDisplay:10.37,2014-08-29 20:40:00,
2014-08-29 15:45:00,85.1,65.5,28.46,SE,135,2.3,2.3,52,0.00,CLR,,0.00,WeatherDisplay:10.37,2014-08-29 20:45:00,
2014-08-29 15:50:00,85.1,65.5,28.46,East,90,5.8,5.8,52,0.00,CLR,,0.00,WeatherDisplay:10.37,2014-08-29 20:50:00,
2014-08-29 15:55:00,84.9,65.3,28.45,ENE,68,3.5,3.5,52,0.00,CLR,,0.00,WeatherDisplay:10.37,2014-08-29 20:55:00,
2014-08-29 16:00:00,84.7,65.7,28.45,South,180,2.3,2.3,53,0.00,CLR,,0.00,WeatherDisplay:10.37,2014-08-29 21:00:00,
2014-08-29 16:05:00,84.6,65.6,28.45,South,180,3.7,3.7,53,0.00,CLR,,0.00,WeatherDisplay:10.37,2014-08-29 21:05:00,
2014-08-29 16:10:00,84.4,65.4,28.45,SW,225,6.3,6.3,53,0.00,CLR,,0.00,WeatherDisplay:10.37,2014-08-29 21:10:00,
2014-08-29 16:15:00,83.8,65.4,28.45,ESE,112,5.8,5.8,54,0.00,CLR,,0.00,WeatherDisplay:10.37,2014-08-29 21:15:00,
2014-08-29 16:20:00,84.0,66.1,28.45,South,180,4.6,4.6,55,0.00,CLR,,0.00,WeatherDisplay:10.37,2014-08-29 21:20:00,
2014-08-29 16:25:00,84.2,65.8,28.45,South,180,5.8,5.8,54,0.00,CLR,,0.00,WeatherDisplay:10.37,2014-08-29 21:25:00,
2014-08-29 16:30:00,83.8,64.3,28.45,South,180,5.8,5.8,52,0.00,CLR,,0.00,WeatherDisplay:10.37,2014-08-29 21:30:00,
2014-08-29 16:35:00,83.8,64.3,28.45,South,180,4.7,4.7,52,0.00,CLR,,0.00,WeatherDisplay:10.37,2014-08-29 21:35:00,
2014-08-29 16:40:00,83.1,66.3,28.45,SSE,158,4.6,4.6,57,0.00,CLR,,0.00,WeatherDisplay:10.37,2014-08-29 21:40:00,
2014-08-29 16:45:00,83.1,66.3,28.45,SW,225,5.8,5.8,57,0.00,CLR,,0.00,WeatherDisplay:10.37,2014-08-29 21:45:00,
2014-08-29 16:50:00,83.1,66.3,28.45,East,90,4.6,4.6,57,0.00,CLR,,0.00,WeatherDisplay:10.37,2014-08-29 21:50:00,
2014-08-29 16:55:00,83.3,66.5,28.45,ESE,112,5.8,5.8,57,0.00,CLR,,0.00,WeatherDisplay:10.37,2014-08-29 21:55:00,
2014-08-29 17:00:00,83.1,66.3,28.45,WNW,292,5.8,5.8,57,0.00,CLR,,0.00,WeatherDisplay:10.37,2014-08-29 22:00:00,
2014-08-29 17:05:00,82.8,66.5,28.45,South,180,6.3,6.3,58,0.00,CLR,,0.00,WeatherDisplay:10.37,2014-08-29 22:05:00,
2014-08-29 17:10:00,83.1,66.8,28.45,NNE,22,4.6,4.6,58,0.00,CLR,,0.00,WeatherDisplay:10.37,2014-08-29 22:10:00,
2014-08-29 17:15:00,82.8,66.5,28.45,SSW,202,5.8,5.8,58,0.00,CLR,,0.00,WeatherDisplay:10.37,2014-08-29 22:15:00,
2014-08-29 17:20:00,83.3,67.0,28.45,SSW,202,5.8,5.8,58,0.00,CLR,,0.00,WeatherDisplay:10.37,2014-08-29 22:20:00,
2014-08-29 17:25:00,83.8,67.4,28.45,NNW,338,4.7,4.7,58,0.00,CLR,,0.00,WeatherDisplay:10.37,2014-08-29 22:25:00,
2014-08-29 17:30:00,84.9,67.5,28.45,SSW,202,5.8,5.8,56,0.00,CLR,,0.00,WeatherDisplay:10.37,2014-08-29 22:30:00,
2014-08-29 17:35:00,83.5,66.7,28.45,South,180,6.9,6.9,57,0.00,CLR,,0.00,WeatherDisplay:10.37,2014-08-29 22:35:00,
2014-08-29 17:40:00,83.5,66.7,28.45,SSW,202,5.8,5.8,57,0.00,CLR,,0.00,WeatherDisplay:10.37,2014-08-29 22:40:00,
2014-08-29 17:45:00,83.5,66.7,28.45,West,270,4.6,4.6,57,0.00,CLR,,0.00,WeatherDisplay:10.37,2014-08-29 22:45:00,
2014-08-29 17:50:00,84.2,67.3,28.45,SSE,158,4.7,4.7,57,0.00,CLR,,0.00,WeatherDisplay:10.37,2014-08-29 22:50:00,
2014-08-29 17:55:00,84.4,67.5,28.45,SSW,202,3.7,3.7,57,0.00,CLR,,0.00,WeatherDisplay:10.37,2014-08-29 22:55:00,
2014-08-29 18:00:00,83.8,66.4,28.45,East,90,5.8,5.8,56,0.00,CLR,,0.00,WeatherDisplay:10.37,2014-08-29 23:00:00,
2014-08-29 18:05:00,84.0,67.1,28.46,West,270,3.5,3.5,57,0.00,CLR,,0.00,WeatherDisplay:10.37,2014-08-29 23:05:00,
2014-08-29 18:10:00,83.1,66.8,28.46,SSE,158,7.3,7.3,58,0.00,CLR,,0.00,WeatherDisplay:10.37,2014-08-29 23:10:00,
2014-08-29 18:15:00,82.4,66.1,28.46,West,270,8.1,8.1,58,0.00,CLR,,0.00,WeatherDisplay:10.37,2014-08-29 23:15:00,
2014-08-29 18:20:00,82.6,66.3,28.46,West,270,4.6,4.6,58,0.00,CLR,,0.00,WeatherDisplay:10.37,2014-08-29 23:20:00,
2014-08-29 18:25:00,83.1,66.8,28.46,SSW,202,5.8,5.8,58,0.00,CLR,,0.00,WeatherDisplay:10.37,2014-08-29 23:25:00,
2014-08-29 18:30:00,82.6,66.8,28.46,ESE,112,6.9,6.9,59,0.00,CLR,,0.00,WeatherDisplay:10.37,2014-08-29 23:30:00,
2014-08-29 18:35:00,82.0,66.3,28.46,SW,225,5.8,5.8,59,0.00,CLR,,0.00,WeatherDisplay:10.37,2014-08-29 23:35:00,
2014-08-29 18:40:00,81.9,66.2,28.46,West,270,8.1,8.1,59,0.00,CLR,,0.00,WeatherDisplay:10.37,2014-08-29 23:40:00,
2014-08-29 18:45:00,81.5,66.3,28.46,South,180,5.8,5.8,60,0.00,CLR,,0.00,WeatherDisplay:10.37,2014-08-29 23:45:00,
2014-08-29 18:50:00,81.1,65.9,28.46,NW,315,6.9,6.9,60,0.00,CLR,,0.00,WeatherDisplay:10.37,2014-08-29 23:50:00,
2014-08-29 18:55:00,80.8,66.1,28.45,South,180,5.8,5.8,61,0.00,CLR,,0.00,WeatherDisplay:10.37,2014-08-29 23:55:00,
2014-08-29 19:00:00,80.6,65.9,28.45,ESE,112,5.8,5.8,61,0.00,CLR,,0.00,WeatherDisplay:10.37,2014-08-30 00:00:00,
2014-08-29 19:05:00,80.8,66.1,28.46,West,270,4.6,4.6,61,0.00,CLR,,0.00,WeatherDisplay:10.37,2014-08-30 00:05:00,
2014-08-29 19:10:00,80.8,66.6,28.46,South,180,3.7,3.7,62,0.00,CLR,,0.00,WeatherDisplay:10.37,2014-08-30 00:10:00,
2014-08-29 19:15:00,80.4,66.6,28.46,SSW,202,9.2,9.2,63,0.00,CLR,,0.00,WeatherDisplay:10.37,2014-08-30 00:15:00,
2014-08-29 19:20:00,79.9,66.2,28.46,South,180,8.1,8.1,63,0.00,CLR,,0.00,WeatherDisplay:10.37,2014-08-30 00:20:00,
2014-08-29 19:25:00,79.5,66.3,28.46,SSE,158,8.1,8.1,64,0.00,CLR,,0.00,WeatherDisplay:10.37,2014-08-30 00:25:00,
2014-08-29 19:30:00,79.3,66.1,28.46,South,180,6.9,6.9,64,0.00,CLR,,0.00,WeatherDisplay:10.37,2014-08-30 00:30:00,
2014-08-29 19:35:00,79.5,66.3,28.46,SW,225,6.8,6.8,64,0.00,CLR,,0.00,WeatherDisplay:10.37,2014-08-30 00:35:00,
2014-08-29 19:40:00,79.3,66.1,28.46,South,180,5.8,5.8,64,0.00,CLR,,0.00,WeatherDisplay:10.37,2014-08-30 00:40:00,
2014-08-29 19:45:00,79.3,66.1,28.46,South,180,3.5,3.5,64,0.00,CLR,,0.00,WeatherDisplay:10.37,2014-08-30 00:45:00,
2014-08-29 19:50:00,78.6,65.8,28.46,SW,225,5.8,5.8,65,0.00,CLR,,0.00,WeatherDisplay:10.37,2014-08-30 00:50:00,
2014-08-29 19:55:00,78.4,66.1,28.47,South,180,4.6,4.6,66,0.00,CLR,,0.00,WeatherDisplay:10.37,2014-08-30 00:55:00,
2014-08-29 20:00:00,78.6,66.3,28.47,SW,225,4.6,4.6,66,0.00,CLR,,0.00,WeatherDisplay:10.37,2014-08-30 01:00:00,
2014-08-29 20:05:00,78.6,66.3,28.47,SE,135,4.6,4.6,66,0.00,CLR,,0.00,WeatherDisplay:10.37,2014-08-30 01:05:00,